[[{"header":{"parameterUnit":"m.s-1","parameterCategory":1,"la1":30.2991,"la2":30.254,"lo1":-89.0895,"lo2":-89.0444,"dy":0.0017,"dx":0.0017,"nx":28,"ny":28,"refTime":"2024-03-20T09:00:00:Z","depth":0,"parameterNumber":2,"parameterNumberName":"U-component_of_WINDS"},"data":[0,0,0,0,0,0,0,0,0,0,0,0,0,0,0,0,0,0,0,0,0,0,0,0,0,0,0,0,0,0,0,0,0,0,0,0,0,0,0,0,0,0,0,0,0,0,0,0,0,0,0,0,0,0,0,0,0,0,-7.8819,-7.8818,0,-7.8712,-7.8711,-7.871,-7.8462,-7.8457,-7.8452,-7.8447,-7.8345,-7.8347,-7.8349,0,0,0,0,0,0,0,0,0,0,0,0,0,-7.8817,-7.8819,-7.8819,-7.8818,-7.8817,-7.8712,-7.8711,-7.8709,-7.8463,-7.8457,-7.8451,-7.8445,-7.8344,-7.8346,-7.8349,0,0,0,0,0,0,0,0,0,0,0,0,0,-7.8775,-7.8819,-7.882,-7.8681,-7.8667,-7.8713,-7.8711,-7.8709,-7.8464,-7.8457,-7.8449,-7.8442,-7.8343,-7.8346,-7.8349,-7.8522,0,0,-7.8359,-7.836,0,0,0,0,0,0,0,0,-7.8778,-7.8776,-7.8703,-7.8691,-7.8675,-7.8592,-7.8672,-7.8647,-7.8466,-7.8542,-7.8447,-7.8438,-7.8434,-7.8429,-7.8426,-7.8518,-7.8513,-7.8359,-7.8361,-7.8362,-7.8363,0,0,0,0,0,0,0,-7.8781,-7.8779,-7.8777,-7.8702,-7.8685,-7.8626,-7.8612,-7.8666,-7.8533,-7.8535,-7.8516,-7.8507,-7.8425,-7.8424,-7.8422,-7.8512,-7.8359,-7.8361,-7.8363,-7.8365,-7.874,-7.8747,0,0,0,0,0,0,-7.8803,-7.8783,-7.878,-7.8774,-7.8709,-7.8633,-7.8616,-7.8627,-7.8531,-7.8509,-7.8513,-7.8496,-7.8422,-7.8418,-7.8417,-7.8612,-7.8362,-7.8365,-7.8367,-7.8732,-7.8742,-7.875,0,0,0,0,0,0,-7.8804,-7.8805,-7.8785,-7.8773,-7.8766,-7.8641,-7.8655,-7.8629,-7.8627,-7.8515,-7.8491,-7.8536,-7.8416,-7.8413,-7.8497,-7.8605,-7.8366,-7.8369,-7.8722,-7.8735,-7.8746,-7.9005,0,0,0,0,0,0,-7.8805,-7.8807,-7.887,-7.8777,-7.8768,-7.8865,-7.8661,-7.8632,-7.8632,-7.8608,-7.853,-7.851,-7.841,-7.8494,-7.8501,-7.8605,-7.8371,-7.8712,-7.8728,-7.8742,-7.8986,-7.9025,-7.9057,0,0,0,0,0,-7.8806,-7.8949,-7.8874,-7.8875,-7.8843,-7.8872,-7.8867,-7.8747,-7.8642,-7.8705,-7.8633,-7.8512,-7.8593,-7.8505,-7.851,-7.8617,-7.8704,-7.8723,-7.8741,-7.897,-7.9017,-7.9057,0,0,0,0,0,0,-7.9061,-7.8934,-7.885,-7.8967,-7.8932,-7.883,-7.8905,-7.8801,-7.8796,-7.8774,-7.8628,-7.8612,-7.8717,-7.8676,-7.858,-7.878,-7.8629,-7.865,-7.8802,-7.8845,-7.888,-7.8887,-7.8374,0,0,0,0,0,-7.913,-7.9162,-7.905,-7.9164,-7.9151,-7.9033,-7.904,-7.8951,-7.891,-7.8894,-7.8828,-7.8795,-7.8812,-7.8827,-7.8837,-7.898,-7.8959,-7.9057,-7.9092,-7.9122,-7.9141,-7.9212,-7.9254,-7.881,-7.881,-7.881,0,0,-7.9274,-7.9209,-7.9238,-7.9214,-7.9176,-7.9214,-7.9021,-7.907,-7.9096,-7.8902,-7.8976,-7.8928,-7.8881,-7.8996,-7.9043,-7.8964,-7.9259,-7.9145,-7.917,-7.9172,-7.9235,-7.9277,-7.9315,-7.8823,-7.882,-7.8818,0,0,-7.9555,-7.951,-7.9598,-7.9565,-7.9509,-7.9429,-7.9452,-7.9366,-7.9325,-7.9398,-7.9252,-7.9284,-7.9318,-7.9289,-7.928,-7.9553,-7.9441,-7.9561,-7.9746,-7.9817,-7.9852,-7.9882,-7.9978,-8.0014,-7.958,-7.9581,-7.9581,0,-7.9742,-7.979,-7.9658,-7.9715,-7.9709,-7.9533,-7.9623,-7.9597,-7.955,-7.9551,-7.9464,-7.9501,-7.9458,-7.9562,-7.9629,-7.9628,-7.9649,-7.9567,-7.9858,-7.9886,-7.9913,-8.0002,-8.0039,-7.9596,-7.9594,-7.9592,-7.9591,0,-8.0022,-8.0058,-8.0137,-8.0092,-8.0095,-8.0169,-8.005,-8.007,-7.9982,-7.9912,-7.9989,-7.993,-7.9925,-7.9944,-7.9859,-8.0037,-7.999,-7.9884,-7.9728,-7.9972,-8.0053,-8.0087,-7.9617,-7.9611,-7.9607,-7.9603,0,0,-8.0457,-8.0339,-8.037,-8.0347,-8.0274,-8.0301,-8.0368,-8.036,-8.038,-8.0354,-8.0406,-8.044,-8.0339,-8.0329,-8.024,-8.0304,-8.0522,-8.0188,-8.0184,-8.025,-8.0713,-8.0792,-8.0834,-8.0448,-8.0454,-8.0459,-8.0716,0,-8.0719,-8.0822,-8.0706,-8.0835,-8.0867,-8.0702,-8.076,-8.0723,-8.0661,-8.0681,-8.0613,-8.0638,-8.0505,-8.0497,-8.0553,-8.0484,-8.0612,-8.0464,-8.0496,-8.0498,-8.0509,-8.0877,-8.096,-8.1205,-8.0748,-8.0753,-8.0757,0,-8.1037,-8.1023,-8.1155,-8.1073,-8.1082,-8.1136,-8.1119,-8.1141,-8.1096,-8.1047,-8.1036,-8.0928,-8.0989,-8.0842,-8.0925,-8.0826,-8.0833,-8.0802,-8.0808,-8.0804,-8.064,-8.0881,-8.1281,-8.1317,-8.0806,-8.0802,-8.0799,0,-8.1339,-8.1354,-8.1434,-8.142,-8.1327,-8.1369,-8.1333,-8.1281,-8.1284,-8.1271,-8.1272,-8.1269,-8.1266,-8.1267,-8.1161,-8.1064,-8.1258,-8.1101,-8.1218,-8.1221,-8.1264,-8.1262,-8.1669,-8.1274,-8.1274,-8.1273,-8.1272,0,-8.1641,-8.1728,-8.1567,-8.1617,-8.1709,-8.1577,-8.1673,-8.1621,-8.1576,-8.1613,-8.1473,-8.1512,-8.1371,-8.1396,-8.1315,-8.1395,-8.1396,-8.1358,-8.1335,-8.1369,-8.1374,-8.1369,-8.1348,-8.1283,-8.1281,-8.1279,-8.1277,0,-8.1992,-8.1889,-8.1964,-8.1871,-8.1849,-8.1922,-8.1842,-8.1884,-8.1814,-8.1863,-8.1867,-8.1757,-8.1778,-8.1674,-8.1678,-8.1624,-8.1744,-8.1694,-8.1759,-8.1742,-8.1864,-8.1853,-8.2279,-8.2328,-8.1906,-8.1911,-8.1914,0,-8.219,-8.2252,-8.2165,-8.2178,-8.2149,-8.2173,-8.2175,-8.2049,-8.2057,-8.2012,-8.206,-8.207,-8.207,-8.2113,-8.2034,-8.2037,-8.1984,-8.2133,-8.1983,-8.2015,-8.1983,-8.1979,-8.1984,-8.2164,-8.2169,-8.2173,-8.2177,0,-8.2552,-8.2498,-8.2504,-8.2494,-8.25,-8.2486,-8.2463,-8.2484,-8.2347,-8.2364,-8.2383,-8.2384,-8.2387,-8.2398,-8.2385,-8.2349,-8.2242,-8.2225,-8.2252,-8.2285,-8.2319,-8.23,-8.1841,-8.2215,-8.2211,-8.2208,-8.2206,-8.2205,-8.283,-8.2877,-8.2823,-8.2835,-8.2804,-8.2787,-8.2821,-8.2755,-8.2767,-8.2758,-8.2684,-8.2718,-8.2673,-8.2643,-8.2619,-8.2644,-8.2573,-8.2613,-8.2622,-8.2633,-8.2653,-8.2318,-8.2642,-8.264,-8.2639,-8.2638,-8.2637,0,-8.3182,-8.3139,-8.3152,-8.3123,-8.3134,-8.303,-8.3,-8.3016,-8.3046,-8.3012,-8.3015,-8.3038,-8.3048,-8.2972,-8.2972,-8.3008,-8.2958,-8.3012,-8.3006,-8.3,-8.2718,-8.2693,-8.3052,-8.3052,-8.3052,-8.3051,-8.3051,-8.3051,-8.3367,-8.344,-8.338,-8.3438,-8.3395,-8.3424,-8.3415,-8.3399,-8.3371,-8.3401,-8.3408,-8.3358,-8.3307,-8.3303,-8.3309,-8.3286,-8.3292,-8.3362,-8.3323,-8.306,-8.302,-8.2981,-8.2957,-8.3366,-8.3366,-8.3602,-8.3604,-8.3606]},{"header":{"parameterUnit":"m.s-1","parameterCategory":1,"la1":30.2991,"la2":30.254,"lo1":-89.0895,"lo2":-89.0444,"dy":0.0017,"dx":0.0017,"nx":28,"ny":28,"refTime":"2024-03-20T09:00:00:Z","depth":0,"parameterNumber":3,"parameterNumberName":"V-component_of_WINDS"},"data":[0,0,0,0,0,0,0,0,0,0,0,0,0,0,0,0,0,0,0,0,0,0,0,0,0,0,0,0,0,0,0,0,0,0,0,0,0,0,0,0,0,0,0,0,0,0,0,0,0,0,0,0,0,0,0,0,0,0,-1.355,-1.355,0,-1.3543,-1.3543,-1.3543,-1.3533,-1.3533,-1.3533,-1.3533,-1.3524,-1.3524,-1.3524,0,0,0,0,0,0,0,0,0,0,0,0,0,-1.355,-1.355,-1.355,-1.355,-1.355,-1.3543,-1.3543,-1.3543,-1.3533,-1.3533,-1.3533,-1.3533,-1.3524,-1.3524,-1.3524,0,0,0,0,0,0,0,0,0,0,0,0,0,-1.3548,-1.355,-1.355,-1.3544,-1.3544,-1.3543,-1.3543,-1.3543,-1.3533,-1.3533,-1.3533,-1.3532,-1.3524,-1.3524,-1.3524,-1.3529,0,0,-1.3524,-1.3524,0,0,0,0,0,0,0,0,-1.3548,-1.3548,-1.3545,-1.3545,-1.3544,-1.3539,-1.354,-1.3538,-1.3533,-1.3537,-1.3533,-1.3532,-1.3529,-1.3529,-1.3528,-1.3528,-1.3528,-1.3524,-1.3524,-1.3524,-1.3524,0,0,0,0,0,0,0,-1.3548,-1.3548,-1.3547,-1.3545,-1.3544,-1.3541,-1.354,-1.354,-1.3535,-1.3537,-1.3536,-1.3535,-1.3529,-1.3528,-1.3528,-1.3528,-1.3524,-1.3524,-1.3524,-1.3524,-1.3528,-1.3529,0,0,0,0,0,0,-1.3549,-1.3548,-1.3548,-1.3547,-1.3545,-1.3541,-1.354,-1.3541,-1.3535,-1.3534,-1.3536,-1.3535,-1.3528,-1.3528,-1.3527,-1.353,-1.3524,-1.3524,-1.3524,-1.3528,-1.3528,-1.3529,0,0,0,0,0,0,-1.3549,-1.3549,-1.3548,-1.3547,-1.3547,-1.3541,-1.3542,-1.3541,-1.354,-1.3534,-1.3533,-1.3536,-1.3528,-1.3528,-1.3528,-1.353,-1.3524,-1.3524,-1.3528,-1.3528,-1.3528,-1.3538,0,0,0,0,0,0,-1.355,-1.355,-1.3552,-1.3548,-1.3547,-1.355,-1.3542,-1.3541,-1.354,-1.3539,-1.3534,-1.3533,-1.3528,-1.3528,-1.3528,-1.353,-1.3523,-1.3528,-1.3528,-1.3528,-1.3537,-1.3539,-1.3539,0,0,0,0,0,-1.355,-1.3556,-1.3553,-1.3553,-1.3551,-1.355,-1.3549,-1.3544,-1.354,-1.3542,-1.3538,-1.3533,-1.353,-1.3528,-1.3528,-1.353,-1.3528,-1.3528,-1.3528,-1.3537,-1.3538,-1.3539,0,0,0,0,0,0,-1.3561,-1.3555,-1.3552,-1.3557,-1.3554,-1.3548,-1.3551,-1.3546,-1.3544,-1.3543,-1.3536,-1.3535,-1.3536,-1.3533,-1.3531,-1.3532,-1.3528,-1.3528,-1.3534,-1.3536,-1.3537,-1.3537,-1.3523,0,0,0,0,0,-1.3564,-1.3565,-1.3559,-1.3564,-1.3563,-1.3557,-1.3557,-1.3552,-1.3549,-1.3548,-1.3544,-1.354,-1.3537,-1.3536,-1.3534,-1.3537,-1.3534,-1.3538,-1.3539,-1.3539,-1.354,-1.3538,-1.3539,-1.353,-1.353,-1.353,0,0,-1.3571,-1.3567,-1.3569,-1.3566,-1.3564,-1.3563,-1.3556,-1.3557,-1.3556,-1.3548,-1.3548,-1.3544,-1.3539,-1.354,-1.354,-1.3537,-1.3542,-1.354,-1.3541,-1.3541,-1.3539,-1.354,-1.354,-1.353,-1.353,-1.353,0,0,-1.3582,-1.3581,-1.3583,-1.358,-1.3576,-1.3572,-1.3572,-1.3567,-1.3564,-1.3564,-1.3557,-1.3555,-1.3552,-1.3548,-1.3546,-1.3552,-1.3547,-1.3552,-1.3557,-1.3556,-1.3556,-1.3557,-1.3558,-1.3558,-1.3552,-1.3552,-1.3552,0,-1.3591,-1.3591,-1.3585,-1.3585,-1.3583,-1.3576,-1.3577,-1.3574,-1.3569,-1.3568,-1.3565,-1.3559,-1.3556,-1.3554,-1.3555,-1.3554,-1.3553,-1.3553,-1.3557,-1.3557,-1.3558,-1.3558,-1.3559,-1.3553,-1.3553,-1.3552,-1.3552,0,-1.36,-1.36,-1.3603,-1.3598,-1.3596,-1.3597,-1.359,-1.3589,-1.3584,-1.3579,-1.3577,-1.3572,-1.3568,-1.3567,-1.3563,-1.3564,-1.3562,-1.3558,-1.3554,-1.3559,-1.356,-1.356,-1.3553,-1.3553,-1.3553,-1.3553,0,0,-1.3621,-1.3611,-1.3611,-1.3608,-1.3602,-1.3601,-1.36,-1.3596,-1.3594,-1.359,-1.3588,-1.3584,-1.358,-1.3577,-1.3572,-1.3571,-1.3574,-1.3567,-1.3566,-1.3567,-1.3573,-1.3575,-1.3576,-1.357,-1.357,-1.357,-1.3572,0,-1.363,-1.3629,-1.3622,-1.3623,-1.3621,-1.3612,-1.3611,-1.3606,-1.3601,-1.3598,-1.3592,-1.3589,-1.3584,-1.3582,-1.358,-1.3574,-1.3575,-1.3574,-1.3567,-1.3567,-1.3568,-1.3576,-1.3579,-1.3582,-1.3573,-1.3573,-1.3573,0,-1.3641,-1.3637,-1.3637,-1.3628,-1.3627,-1.3627,-1.3621,-1.3619,-1.3612,-1.3608,-1.3603,-1.3597,-1.3594,-1.3589,-1.3584,-1.3583,-1.358,-1.3576,-1.3576,-1.3575,-1.357,-1.3574,-1.3583,-1.3583,-1.3573,-1.3573,-1.3573,0,-1.3653,-1.3648,-1.3647,-1.3645,-1.3635,-1.3634,-1.363,-1.3623,-1.362,-1.3614,-1.3611,-1.3606,-1.3602,-1.3597,-1.3589,-1.3586,-1.3583,-1.3578,-1.3579,-1.3579,-1.3579,-1.3579,-1.3586,-1.3577,-1.3577,-1.3577,-1.3577,0,-1.3664,-1.3664,-1.3652,-1.3652,-1.365,-1.3642,-1.3641,-1.3635,-1.3629,-1.3625,-1.3617,-1.3614,-1.3604,-1.3599,-1.3592,-1.3587,-1.3586,-1.3582,-1.358,-1.3582,-1.3583,-1.358,-1.3579,-1.3578,-1.3578,-1.3578,-1.3578,0,-1.3678,-1.367,-1.3668,-1.3658,-1.3656,-1.3655,-1.3646,-1.3644,-1.3638,-1.3633,-1.3632,-1.3622,-1.3615,-1.3606,-1.3598,-1.3593,-1.3589,-1.3586,-1.3591,-1.359,-1.359,-1.359,-1.3595,-1.3595,-1.3588,-1.3588,-1.3588,0,-1.3685,-1.3685,-1.3674,-1.3671,-1.3667,-1.3663,-1.366,-1.365,-1.3647,-1.3638,-1.3636,-1.3629,-1.3623,-1.3613,-1.3604,-1.3597,-1.3593,-1.3596,-1.3592,-1.3594,-1.3592,-1.3592,-1.3591,-1.3596,-1.3597,-1.3597,-1.3597,0,-1.3697,-1.3693,-1.3689,-1.3682,-1.3678,-1.3672,-1.3666,-1.3664,-1.3653,-1.3649,-1.3642,-1.3638,-1.3628,-1.362,-1.3611,-1.3605,-1.3599,-1.3598,-1.3597,-1.3599,-1.3602,-1.3599,-1.3592,-1.3598,-1.3598,-1.3598,-1.3598,-1.3598,-1.3707,-1.3705,-1.3697,-1.3692,-1.3686,-1.368,-1.3677,-1.367,-1.3664,-1.3656,-1.365,-1.3643,-1.3634,-1.3621,-1.3615,-1.3608,-1.3606,-1.3606,-1.3605,-1.3605,-1.3605,-1.3603,-1.3607,-1.3607,-1.3607,-1.3607,-1.3607,0,-1.3718,-1.3712,-1.3707,-1.3698,-1.3693,-1.3687,-1.368,-1.3676,-1.367,-1.3662,-1.3656,-1.3647,-1.3639,-1.3629,-1.362,-1.3616,-1.3613,-1.3614,-1.3614,-1.3612,-1.3609,-1.361,-1.3617,-1.3617,-1.3617,-1.3617,-1.3617,-1.3617,-1.3723,-1.3719,-1.3713,-1.3706,-1.37,-1.3693,-1.3689,-1.3682,-1.3676,-1.3666,-1.366,-1.3653,-1.3644,-1.3633,-1.3625,-1.3622,-1.3619,-1.3621,-1.3617,-1.3614,-1.3613,-1.3612,-1.3613,-1.3621,-1.3621,-1.3621,-1.3621,-1.3621]}]]